Time,TemperatureF,DewpointF,PressureIn,WindDirection,WindDirectionDegrees,WindSpeedMPH,WindSpeedGustMPH,Humidity,HourlyPrecipIn,Conditions,Clouds,dailyrainin,SoftwareType,DateUTC
2013-01-11 00:05:00,34.8,33.2,29.87,SE,130,0.0,0.0,94,0.18,,,0.19,Wunderground v.1.15,2013-01-11 06:05:00,
2013-01-11 00:11:00,34.7,33.2,29.86,SE,126,0.0,0.0,94,0.06,,,0.19,Wunderground v.1.15,2013-01-11 06:11:00,
2013-01-11 00:17:00,34.6,33.1,29.85,ESE,113,0.0,0.0,94,0.04,,,0.19,Wunderground v.1.15,2013-01-11 06:17:00,
2013-01-11 00:23:00,34.7,33.2,29.85,SE,142,0.0,0.0,94,0.00,,,0.19,Wunderground v.1.15,2013-01-11 06:23:00,
2013-01-11 00:29:00,34.7,33.2,29.85,SE,134,0.0,0.0,94,0.00,,,0.19,Wunderground v.1.15,2013-01-11 06:29:00,
2013-01-11 00:35:00,34.7,33.2,29.84,East,94,0.0,0.0,94,0.00,,,0.19,Wunderground v.1.15,2013-01-11 06:35:00,
2013-01-11 00:41:00,34.6,33.1,29.83,SE,138,0.0,0.0,94,0.00,,,0.19,Wunderground v.1.15,2013-01-11 06:41:00,
2013-01-11 00:46:00,34.7,33.2,29.83,ESE,123,0.0,0.0,94,0.00,,,0.19,Wunderground v.1.15,2013-01-11 06:46:00,
2013-01-11 00:52:00,34.7,33.2,29.82,East,98,0.0,0.0,94,0.00,,,0.19,Wunderground v.1.15,2013-01-11 06:52:00,
2013-01-11 00:58:00,34.8,33.5,29.82,SE,136,0.0,0.0,95,0.00,,,0.19,Wunderground v.1.15,2013-01-11 06:58:00,
2013-01-11 01:04:00,34.9,33.3,29.82,ESE,117,0.0,0.0,94,0.00,,,0.19,Wunderground v.1.15,2013-01-11 07:04:00,
2013-01-11 01:09:00,35.0,33.4,29.81,SE,125,0.0,0.0,94,0.00,,,0.19,Wunderground v.1.15,2013-01-11 07:09:00,
2013-01-11 01:15:00,35.0,33.4,29.80,ESE,105,0.0,0.0,94,0.00,,,0.19,Wunderground v.1.15,2013-01-11 07:15:00,
2013-01-11 01:21:00,34.9,33.3,29.80,SE,124,0.0,0.0,94,0.00,,,0.19,Wunderground v.1.15,2013-01-11 07:21:00,
2013-01-11 01:27:00,34.9,33.3,29.79,ESE,121,0.0,0.0,94,0.00,,,0.19,Wunderground v.1.15,2013-01-11 07:27:00,
2013-01-11 01:33:00,35.0,33.4,29.79,SE,128,0.0,0.0,94,0.00,,,0.19,Wunderground v.1.15,2013-01-11 07:33:00,
2013-01-11 01:38:00,34.9,33.3,29.79,ESE,123,0.0,0.0,94,0.00,,,0.19,Wunderground v.1.15,2013-01-11 07:38:00,
2013-01-11 01:44:00,34.9,33.3,29.78,SE,140,0.0,0.0,94,0.00,,,0.19,Wunderground v.1.15,2013-01-11 07:44:00,
2013-01-11 01:49:00,34.8,33.2,29.79,SE,136,0.0,0.0,94,0.00,,,0.19,Wunderground v.1.15,2013-01-11 07:49:00,
2013-01-11 01:55:00,34.8,33.2,29.78,SE,126,0.0,0.0,94,0.00,,,0.19,Wunderground v.1.15,2013-01-11 07:55:00,
2013-01-11 02:01:00,34.8,33.5,29.78,SE,140,0.0,0.0,95,0.00,,,0.19,Wunderground v.1.15,2013-01-11 08:01:00,
2013-01-11 02:07:00,34.8,33.2,29.79,ESE,123,0.0,0.0,94,0.00,,,0.19,Wunderground v.1.15,2013-01-11 08:07:00,
2013-01-11 02:13:00,34.8,33.2,29.79,SE,126,0.0,0.0,94,0.00,,,0.19,Wunderground v.1.15,2013-01-11 08:13:00,
2013-01-11 02:18:00,34.7,33.4,29.79,East,87,0.0,0.0,95,0.00,,,0.19,Wunderground v.1.15,2013-01-11 08:18:00,
2013-01-11 02:24:00,34.7,33.4,29.79,ESE,115,0.0,0.0,95,0.00,,,0.19,Wunderground v.1.15,2013-01-11 08:24:00,
2013-01-11 02:30:00,34.7,33.4,29.79,SE,131,0.0,0.0,95,0.00,,,0.19,Wunderground v.1.15,2013-01-11 08:30:00,
2013-01-11 02:36:00,34.7,33.4,29.79,SE,144,0.0,0.0,95,0.00,,,0.19,Wunderground v.1.15,2013-01-11 08:36:00,
2013-01-11 02:42:00,34.7,33.4,29.79,SE,134,0.0,0.0,95,0.00,,,0.19,Wunderground v.1.15,2013-01-11 08:42:00,
2013-01-11 02:47:00,34.7,33.4,29.78,SE,131,0.0,0.0,95,0.00,,,0.19,Wunderground v.1.15,2013-01-11 08:47:00,
2013-01-11 02:53:00,34.7,33.4,29.78,ESE,115,0.0,0.0,95,0.00,,,0.19,Wunderground v.1.15,2013-01-11 08:53:00,
2013-01-11 02:59:00,34.6,33.3,29.77,SSE,157,0.0,0.0,95,0.00,,,0.19,Wunderground v.1.15,2013-01-11 08:59:00,
2013-01-11 03:05:00,34.6,33.3,29.77,SE,142,0.0,0.0,95,0.00,,,0.19,Wunderground v.1.15,2013-01-11 09:05:00,
2013-01-11 03:11:00,34.6,33.3,29.76,SE,136,0.0,0.0,95,0.00,,,0.20,Wunderground v.1.15,2013-01-11 09:11:00,
2013-01-11 03:17:00,34.6,33.3,29.76,SSE,148,0.0,0.0,95,0.00,,,0.20,Wunderground v.1.15,2013-01-11 09:17:00,
2013-01-11 03:23:00,34.6,33.3,29.76,SE,132,0.0,0.0,95,0.00,,,0.20,Wunderground v.1.15,2013-01-11 09:23:00,
2013-01-11 03:29:00,34.5,33.2,29.76,SSE,160,0.0,0.0,95,0.00,,,0.20,Wunderground v.1.15,2013-01-11 09:29:00,
2013-01-11 03:35:00,34.5,33.2,29.75,SE,127,0.0,0.0,95,0.00,,,0.20,Wunderground v.1.15,2013-01-11 09:35:00,
2013-01-11 03:41:00,34.4,33.1,29.75,SE,140,0.0,0.0,95,0.00,,,0.20,Wunderground v.1.15,2013-01-11 09:41:00,
2013-01-11 03:46:00,34.5,33.2,29.74,ESE,120,0.0,0.0,95,0.00,,,0.20,Wunderground v.1.15,2013-01-11 09:46:00,
2013-01-11 03:51:00,34.5,33.2,29.74,SE,143,0.0,0.0,95,0.00,,,0.20,Wunderground v.1.15,2013-01-11 09:51:00,
2013-01-11 03:57:00,34.5,33.2,29.73,ESE,119,0.0,0.0,95,0.00,,,0.20,Wunderground v.1.15,2013-01-11 09:57:00,
2013-01-11 04:02:00,34.6,33.3,29.72,SE,128,0.0,0.0,95,0.00,,,0.20,Wunderground v.1.15,2013-01-11 10:02:00,
2013-01-11 04:08:00,34.6,33.3,29.72,SE,131,0.0,0.0,95,0.00,,,0.21,Wunderground v.1.15,2013-01-11 10:08:00,
2013-01-11 04:13:00,34.6,33.3,29.72,SE,132,0.0,0.0,95,0.00,,,0.21,Wunderground v.1.15,2013-01-11 10:13:00,
2013-01-11 04:19:00,34.6,33.3,29.72,ESE,118,0.0,0.0,95,0.00,,,0.21,Wunderground v.1.15,2013-01-11 10:19:00,
2013-01-11 04:25:00,34.5,33.2,29.72,SSE,161,0.0,0.0,95,0.00,,,0.21,Wunderground v.1.15,2013-01-11 10:25:00,
2013-01-11 04:31:00,34.4,33.1,29.71,SE,135,0.0,0.0,95,0.00,,,0.21,Wunderground v.1.15,2013-01-11 10:31:00,
2013-01-11 04:36:00,34.3,33.0,29.70,SE,140,0.0,0.0,95,0.00,,,0.21,Wunderground v.1.15,2013-01-11 10:36:00,
2013-01-11 04:42:00,34.2,32.9,29.70,SE,126,0.0,0.0,95,0.00,,,0.21,Wunderground v.1.15,2013-01-11 10:42:00,
2013-01-11 04:48:00,34.2,32.9,29.70,SE,136,0.0,0.0,95,0.00,,,0.21,Wunderground v.1.15,2013-01-11 10:48:00,
2013-01-11 04:54:00,34.2,32.9,29.69,ESE,118,0.0,0.0,95,0.00,,,0.21,Wunderground v.1.15,2013-01-11 10:54:00,
2013-01-11 05:00:00,34.2,32.9,29.69,SE,138,0.0,0.0,95,0.00,,,0.21,Wunderground v.1.15,2013-01-11 11:00:00,
2013-01-11 05:06:00,34.2,32.9,29.68,SE,138,0.0,0.0,95,0.00,,,0.21,Wunderground v.1.15,2013-01-11 11:06:00,
2013-01-11 05:12:00,34.2,32.9,29.68,SE,138,0.0,0.0,95,0.00,,,0.21,Wunderground v.1.15,2013-01-11 11:12:00,
2013-01-11 05:18:00,34.3,33.0,29.68,SE,134,0.0,0.0,95,0.00,,,0.21,Wunderground v.1.15,2013-01-11 11:18:00,
2013-01-11 05:24:00,34.3,33.0,29.68,SE,134,0.0,0.0,95,0.00,,,0.21,Wunderground v.1.15,2013-01-11 11:24:00,
2013-01-11 05:29:00,34.3,33.0,29.68,SE,138,0.0,0.0,95,0.00,,,0.21,Wunderground v.1.15,2013-01-11 11:29:00,
2013-01-11 05:35:00,34.3,33.0,29.67,SE,137,0.0,0.0,95,0.00,,,0.21,Wunderground v.1.15,2013-01-11 11:35:00,
2013-01-11 05:41:00,34.3,33.0,29.67,SE,127,0.0,0.0,95,0.00,,,0.21,Wunderground v.1.15,2013-01-11 11:41:00,
2013-01-11 05:47:00,34.4,33.1,29.67,ESE,115,0.0,0.0,95,0.00,,,0.21,Wunderground v.1.15,2013-01-11 11:47:00,
2013-01-11 05:53:00,34.3,33.0,29.66,ESE,116,0.0,0.0,95,0.00,,,0.21,Wunderground v.1.15,2013-01-11 11:53:00,
2013-01-11 05:59:00,34.4,33.1,29.66,ESE,122,0.0,0.0,95,0.00,,,0.21,Wunderground v.1.15,2013-01-11 11:59:00,
2013-01-11 06:05:00,34.4,33.1,29.66,SE,124,0.0,0.0,95,0.00,,,0.21,Wunderground v.1.15,2013-01-11 12:05:00,
2013-01-11 06:11:00,34.4,33.1,29.66,ESE,123,0.0,0.0,95,0.00,,,0.21,Wunderground v.1.15,2013-01-11 12:11:00,
2013-01-11 06:17:00,34.4,33.1,29.66,SE,136,0.0,0.0,95,0.00,,,0.21,Wunderground v.1.15,2013-01-11 12:17:00,
2013-01-11 06:22:00,34.3,33.0,29.67,ESE,120,0.0,0.0,95,0.00,,,0.21,Wunderground v.1.15,2013-01-11 12:22:00,
2013-01-11 06:28:00,34.3,33.3,29.67,SSE,156,0.0,0.0,96,0.00,,,0.21,Wunderground v.1.15,2013-01-11 12:28:00,
2013-01-11 06:34:00,34.3,33.3,29.67,South,171,0.0,0.0,96,0.00,,,0.21,Wunderground v.1.15,2013-01-11 12:34:00,
2013-01-11 06:40:00,34.2,33.2,29.66,SE,135,0.0,0.0,96,0.00,,,0.21,Wunderground v.1.15,2013-01-11 12:40:00,
2013-01-11 06:46:00,34.2,33.2,29.66,SE,136,0.0,0.0,96,0.00,,,0.21,Wunderground v.1.15,2013-01-11 12:46:00,
2013-01-11 06:52:00,34.1,33.1,29.66,ESE,118,0.0,0.0,96,0.00,,,0.21,Wunderground v.1.15,2013-01-11 12:52:00,
2013-01-11 06:58:00,34.2,33.2,29.66,SE,132,0.0,0.0,96,0.00,,,0.21,Wunderground v.1.15,2013-01-11 12:58:00,
2013-01-11 07:03:00,34.2,33.2,29.66,SSE,155,0.0,0.0,96,0.00,,,0.21,Wunderground v.1.15,2013-01-11 13:03:00,
2013-01-11 07:09:00,34.2,33.2,29.66,SE,132,0.0,0.0,96,0.00,,,0.21,Wunderground v.1.15,2013-01-11 13:09:00,
2013-01-11 07:15:00,34.2,33.2,29.66,SE,133,0.0,0.0,96,0.00,,,0.21,Wunderground v.1.15,2013-01-11 13:15:00,
2013-01-11 07:20:00,34.2,32.9,29.66,SE,143,0.0,0.0,95,0.00,,,0.21,Wunderground v.1.15,2013-01-11 13:20:00,
2013-01-11 07:27:00,34.3,33.0,29.66,South,175,0.0,0.0,95,0.00,,,0.21,Wunderground v.1.15,2013-01-11 13:27:00,
2013-01-11 07:33:00,34.2,32.9,29.66,SSE,155,0.0,0.0,95,0.00,,,0.21,Wunderground v.1.15,2013-01-11 13:33:00,
2013-01-11 07:39:00,34.2,32.9,29.66,SE,134,0.0,0.0,95,0.00,,,0.21,Wunderground v.1.15,2013-01-11 13:39:00,
2013-01-11 07:45:00,34.2,33.2,29.64,SE,128,0.0,0.0,96,0.00,,,0.21,Wunderground v.1.15,2013-01-11 13:45:00,
2013-01-11 07:51:00,34.2,33.2,29.64,SE,131,0.0,0.0,96,0.00,,,0.21,Wunderground v.1.15,2013-01-11 13:51:00,
2013-01-11 07:57:00,34.3,33.3,29.64,ESE,106,0.0,0.0,96,0.00,,,0.21,Wunderground v.1.15,2013-01-11 13:57:00,
2013-01-11 08:03:00,34.4,33.4,29.63,SE,130,0.0,0.0,96,0.00,,,0.21,Wunderground v.1.15,2013-01-11 14:03:00,
2013-01-11 08:09:00,34.4,33.4,29.63,ESE,104,0.0,0.0,96,0.00,,,0.21,Wunderground v.1.15,2013-01-11 14:09:00,
2013-01-11 08:14:00,34.4,33.4,29.64,ESE,122,0.0,0.0,96,0.00,,,0.21,Wunderground v.1.15,2013-01-11 14:14:00,
2013-01-11 08:20:00,34.4,33.4,29.65,SSE,166,0.0,0.0,96,0.00,,,0.21,Wunderground v.1.15,2013-01-11 14:20:00,
2013-01-11 08:25:00,34.4,33.4,29.65,South,185,0.0,0.0,96,0.00,,,0.21,Wunderground v.1.15,2013-01-11 14:25:00,
2013-01-11 08:31:00,34.4,33.4,29.65,South,183,0.0,0.0,96,0.00,,,0.21,Wunderground v.1.15,2013-01-11 14:31:00,
2013-01-11 08:36:00,34.4,33.4,29.64,SSE,153,0.0,0.0,96,0.00,,,0.21,Wunderground v.1.15,2013-01-11 14:36:00,
2013-01-11 08:42:00,34.4,33.4,29.64,SSE,157,0.0,0.0,96,0.00,,,0.21,Wunderground v.1.15,2013-01-11 14:42:00,
2013-01-11 08:48:00,34.6,33.6,29.64,SSE,159,0.0,0.0,96,0.00,,,0.21,Wunderground v.1.15,2013-01-11 14:48:00,
2013-01-11 08:54:00,34.8,33.8,29.64,SE,146,0.0,0.0,96,0.00,,,0.21,Wunderground v.1.15,2013-01-11 14:54:00,
2013-01-11 09:00:00,35.1,34.1,29.64,ESE,115,0.0,0.0,96,0.00,,,0.21,Wunderground v.1.15,2013-01-11 15:00:00,
2013-01-11 09:05:00,35.2,34.2,29.64,SE,134,0.0,0.0,96,0.00,,,0.21,Wunderground v.1.15,2013-01-11 15:05:00,
2013-01-11 09:11:00,35.2,34.2,29.63,ESE,118,0.0,0.0,96,0.00,,,0.21,Wunderground v.1.15,2013-01-11 15:11:00,
2013-01-11 09:17:00,35.4,34.4,29.64,SE,139,0.0,0.0,96,0.00,,,0.21,Wunderground v.1.15,2013-01-11 15:17:00,
2013-01-11 09:23:00,35.5,34.5,29.64,SE,126,0.0,0.0,96,0.00,,,0.21,Wunderground v.1.15,2013-01-11 15:23:00,
2013-01-11 09:29:00,35.6,34.6,29.64,ESE,122,0.0,0.0,96,0.00,,,0.21,Wunderground v.1.15,2013-01-11 15:29:00,
2013-01-11 09:34:00,35.5,34.5,29.64,South,190,0.0,0.0,96,0.00,,,0.21,Wunderground v.1.15,2013-01-11 15:34:00,
2013-01-11 09:40:00,35.4,34.4,29.65,SE,143,0.0,0.0,96,0.00,,,0.21,Wunderground v.1.15,2013-01-11 15:40:00,
2013-01-11 09:46:00,35.3,34.3,29.65,SSE,147,0.0,0.0,96,0.00,,,0.21,Wunderground v.1.15,2013-01-11 15:46:00,
2013-01-11 09:52:00,35.4,34.4,29.64,South,180,0.0,0.0,96,0.00,,,0.21,Wunderground v.1.15,2013-01-11 15:52:00,
2013-01-11 09:58:00,35.4,34.4,29.64,SSE,161,0.0,0.0,96,0.00,,,0.21,Wunderground v.1.15,2013-01-11 15:58:00,
2013-01-11 10:04:00,35.5,34.5,29.64,SE,140,0.0,0.0,96,0.00,,,0.21,Wunderground v.1.15,2013-01-11 16:04:00,
2013-01-11 10:10:00,35.6,34.6,29.65,SSW,200,0.0,0.0,96,0.00,,,0.21,Wunderground v.1.15,2013-01-11 16:10:00,
2013-01-11 10:16:00,35.5,34.5,29.65,SSW,203,0.0,0.0,96,0.00,,,0.21,Wunderground v.1.15,2013-01-11 16:16:00,
2013-01-11 10:21:00,35.6,34.6,29.65,South,186,0.0,0.0,96,0.00,,,0.21,Wunderground v.1.15,2013-01-11 16:21:00,
2013-01-11 10:27:00,35.7,34.7,29.64,South,188,0.0,0.0,96,0.00,,,0.21,Wunderground v.1.15,2013-01-11 16:27:00,
2013-01-11 10:33:00,35.8,34.8,29.63,SSE,159,0.0,0.0,96,0.00,,,0.21,Wunderground v.1.15,2013-01-11 16:33:00,
2013-01-11 10:39:00,36.0,35.0,29.63,SE,143,0.0,0.0,96,0.00,,,0.21,Wunderground v.1.15,2013-01-11 16:39:00,
2013-01-11 10:45:00,36.1,35.1,29.63,SSE,159,0.0,0.0,96,0.00,,,0.21,Wunderground v.1.15,2013-01-11 16:45:00,
2013-01-11 10:51:00,36.0,35.0,29.63,SE,130,0.0,0.0,96,0.00,,,0.21,Wunderground v.1.15,2013-01-11 16:51:00,
2013-01-11 10:57:00,36.1,35.1,29.63,South,169,0.0,0.0,96,0.00,,,0.21,Wunderground v.1.15,2013-01-11 16:57:00,
2013-01-11 11:02:00,36.2,35.2,29.62,ESE,122,0.0,0.0,96,0.00,,,0.21,Wunderground v.1.15,2013-01-11 17:02:00,
2013-01-11 11:08:00,36.4,35.4,29.62,SE,139,0.0,0.0,96,0.00,,,0.21,Wunderground v.1.15,2013-01-11 17:08:00,
2013-01-11 11:14:00,36.3,35.3,29.62,SSW,194,0.0,0.0,96,0.00,,,0.21,Wunderground v.1.15,2013-01-11 17:14:00,
2013-01-11 11:20:00,36.3,35.3,29.61,SE,132,0.0,0.0,96,0.00,,,0.21,Wunderground v.1.15,2013-01-11 17:20:00,
2013-01-11 11:25:00,36.3,35.3,29.61,SE,127,0.0,0.0,96,0.00,,,0.21,Wunderground v.1.15,2013-01-11 17:25:00,
2013-01-11 11:31:00,36.4,35.1,29.62,SSE,167,0.0,0.0,95,0.00,,,0.21,Wunderground v.1.15,2013-01-11 17:31:00,
2013-01-11 11:37:00,36.6,35.6,29.61,SE,128,0.0,0.0,96,0.00,,,0.21,Wunderground v.1.15,2013-01-11 17:37:00,
2013-01-11 11:43:00,36.6,35.6,29.61,SSE,148,0.0,0.0,96,0.00,,,0.21,Wunderground v.1.15,2013-01-11 17:43:00,
2013-01-11 11:49:00,36.6,35.6,29.61,SSW,192,0.0,0.0,96,0.00,,,0.21,Wunderground v.1.15,2013-01-11 17:49:00,
2013-01-11 11:55:00,36.9,35.9,29.61,SSE,157,0.0,0.0,96,0.00,,,0.21,Wunderground v.1.15,2013-01-11 17:55:00,
2013-01-11 12:01:00,37.0,35.7,29.61,SSE,166,0.0,0.0,95,0.00,,,0.21,Wunderground v.1.15,2013-01-11 18:01:00,
2013-01-11 12:07:00,37.0,35.7,29.61,South,189,0.0,0.0,95,0.00,,,0.21,Wunderground v.1.15,2013-01-11 18:07:00,
2013-01-11 12:13:00,37.1,36.1,29.61,SSE,149,0.0,0.0,96,0.00,,,0.21,Wunderground v.1.15,2013-01-11 18:13:00,
2013-01-11 12:19:00,37.2,35.9,29.61,SE,142,0.0,0.0,95,0.00,,,0.21,Wunderground v.1.15,2013-01-11 18:19:00,
2013-01-11 12:24:00,37.3,36.0,29.60,SE,134,0.0,0.0,95,0.00,,,0.21,Wunderground v.1.15,2013-01-11 18:24:00,
2013-01-11 12:30:00,37.2,35.9,29.59,SE,146,0.0,0.0,95,0.00,,,0.21,Wunderground v.1.15,2013-01-11 18:30:00,
2013-01-11 12:36:00,37.2,35.9,29.60,SSE,152,0.0,0.0,95,0.00,,,0.21,Wunderground v.1.15,2013-01-11 18:36:00,
2013-01-11 12:42:00,37.3,36.0,29.60,SSE,152,0.0,0.0,95,0.00,,,0.21,Wunderground v.1.15,2013-01-11 18:42:00,
2013-01-11 12:48:00,37.4,36.1,29.60,SSE,152,0.0,0.0,95,0.00,,,0.21,Wunderground v.1.15,2013-01-11 18:48:00,
2013-01-11 12:54:00,37.4,36.1,29.60,SSE,163,0.0,0.0,95,0.00,,,0.21,Wunderground v.1.15,2013-01-11 18:54:00,
2013-01-11 13:00:00,37.4,36.1,29.60,SSE,167,0.0,0.0,95,0.00,,,0.21,Wunderground v.1.15,2013-01-11 19:00:00,
2013-01-11 13:06:00,37.4,36.1,29.61,SSE,167,0.0,0.0,95,0.00,,,0.21,Wunderground v.1.15,2013-01-11 19:06:00,
2013-01-11 13:12:00,37.4,36.1,29.60,SSE,167,0.0,0.0,95,0.00,,,0.21,Wunderground v.1.15,2013-01-11 19:12:00,
2013-01-11 13:17:00,37.3,36.0,29.60,SSE,164,0.0,0.0,95,0.00,,,0.21,Wunderground v.1.15,2013-01-11 19:17:00,
2013-01-11 13:23:00,37.2,35.9,29.59,SE,125,0.0,0.0,95,0.00,,,0.21,Wunderground v.1.15,2013-01-11 19:23:00,
2013-01-11 13:29:00,37.2,35.9,29.59,SSE,162,0.0,0.0,95,0.00,,,0.21,Wunderground v.1.15,2013-01-11 19:29:00,
2013-01-11 13:35:00,37.1,35.8,29.59,SSE,152,0.0,0.0,95,0.00,,,0.21,Wunderground v.1.15,2013-01-11 19:35:00,
2013-01-11 13:41:00,37.1,35.8,29.59,SE,142,0.0,0.0,95,0.00,,,0.21,Wunderground v.1.15,2013-01-11 19:41:00,
2013-01-11 13:47:00,37.1,35.8,29.60,South,174,0.0,0.0,95,0.00,,,0.21,Wunderground v.1.15,2013-01-11 19:47:00,
2013-01-11 13:53:00,36.9,35.6,29.59,SW,219,0.0,0.0,95,0.00,,,0.21,Wunderground v.1.15,2013-01-11 19:53:00,
2013-01-11 13:59:00,37.0,35.7,29.59,South,188,0.0,0.0,95,0.00,,,0.21,Wunderground v.1.15,2013-01-11 19:59:00,
2013-01-11 14:04:00,37.0,35.7,29.59,SSE,148,0.0,0.0,95,0.00,,,0.21,Wunderground v.1.15,2013-01-11 20:04:00,
2013-01-11 14:10:00,37.0,35.7,29.59,SSE,152,0.0,0.0,95,0.00,,,0.21,Wunderground v.1.15,2013-01-11 20:10:00,
2013-01-11 14:16:00,36.9,35.6,29.59,SE,135,0.0,0.0,95,0.00,,,0.21,Wunderground v.1.15,2013-01-11 20:16:00,
2013-01-11 14:22:00,36.8,35.5,29.59,SSE,157,0.0,0.0,95,0.00,,,0.21,Wunderground v.1.15,2013-01-11 20:22:00,
2013-01-11 14:27:00,36.9,35.6,29.59,SSE,153,0.0,0.0,95,0.00,,,0.21,Wunderground v.1.15,2013-01-11 20:27:00,
2013-01-11 14:33:00,36.8,35.5,29.59,SE,133,0.0,0.0,95,0.00,,,0.21,Wunderground v.1.15,2013-01-11 20:33:00,
2013-01-11 14:39:00,36.8,35.5,29.59,SSE,154,0.0,0.0,95,0.00,,,0.21,Wunderground v.1.15,2013-01-11 20:39:00,
2013-01-11 14:45:00,36.8,35.5,29.59,SSE,168,0.0,0.0,95,0.00,,,0.21,Wunderground v.1.15,2013-01-11 20:45:00,
2013-01-11 14:50:00,36.7,35.4,29.59,SSE,155,0.0,0.0,95,0.00,,,0.21,Wunderground v.1.15,2013-01-11 20:50:00,
2013-01-11 14:56:00,36.7,35.7,29.59,SSE,152,0.0,0.0,96,0.00,,,0.21,Wunderground v.1.15,2013-01-11 20:56:00,
2013-01-11 15:01:00,36.7,35.7,29.58,SSE,164,0.0,0.0,96,0.00,,,0.21,Wunderground v.1.15,2013-01-11 21:01:00,
2013-01-11 15:07:00,36.7,35.4,29.58,SE,142,0.0,0.0,95,0.00,,,0.21,Wunderground v.1.15,2013-01-11 21:07:00,
2013-01-11 15:12:00,36.6,35.6,29.59,SE,126,0.0,0.0,96,0.00,,,0.21,Wunderground v.1.15,2013-01-11 21:12:00,
2013-01-11 15:18:00,36.7,35.7,29.58,ESE,117,0.0,0.0,96,0.00,,,0.21,Wunderground v.1.15,2013-01-11 21:18:00,
2013-01-11 15:24:00,36.9,35.9,29.58,SE,126,0.0,0.0,96,0.00,,,0.21,Wunderground v.1.15,2013-01-11 21:24:00,
2013-01-11 15:30:00,36.8,35.8,29.58,SE,126,0.0,0.0,96,0.00,,,0.21,Wunderground v.1.15,2013-01-11 21:30:00,
2013-01-11 15:36:00,36.8,35.8,29.58,SSE,166,0.0,0.0,96,0.00,,,0.21,Wunderground v.1.15,2013-01-11 21:36:00,
2013-01-11 15:41:00,36.8,35.8,29.58,SSE,154,0.0,0.0,96,0.00,,,0.21,Wunderground v.1.15,2013-01-11 21:41:00,
2013-01-11 15:47:00,36.7,35.7,29.57,South,169,0.0,0.0,96,0.00,,,0.21,Wunderground v.1.15,2013-01-11 21:47:00,
2013-01-11 15:53:00,36.7,35.7,29.58,SSE,150,0.0,0.0,96,0.00,,,0.21,Wunderground v.1.15,2013-01-11 21:53:00,
2013-01-11 15:59:00,36.7,35.7,29.58,South,175,0.0,0.0,96,0.00,,,0.21,Wunderground v.1.15,2013-01-11 21:59:00,
2013-01-11 16:05:00,36.7,35.7,29.58,SSE,154,0.0,0.0,96,0.00,,,0.21,Wunderground v.1.15,2013-01-11 22:05:00,
2013-01-11 16:10:00,36.8,35.8,29.57,SE,126,0.0,0.0,96,0.00,,,0.21,Wunderground v.1.15,2013-01-11 22:10:00,
2013-01-11 16:16:00,37.0,36.0,29.58,SSE,160,0.0,0.0,96,0.00,,,0.21,Wunderground v.1.15,2013-01-11 22:16:00,
2013-01-11 16:21:00,37.1,36.1,29.58,SE,139,0.0,0.0,96,0.00,,,0.21,Wunderground v.1.15,2013-01-11 22:21:00,
2013-01-11 16:26:00,37.1,36.1,29.57,SSE,148,0.0,0.0,96,0.00,,,0.21,Wunderground v.1.15,2013-01-11 22:26:00,
2013-01-11 16:31:00,37.0,36.0,29.57,SE,135,0.0,0.0,96,0.00,,,0.21,Wunderground v.1.15,2013-01-11 22:31:00,
2013-01-11 16:36:00,36.9,35.9,29.58,SE,140,0.0,0.0,96,0.00,,,0.21,Wunderground v.1.15,2013-01-11 22:36:00,
2013-01-11 16:41:00,36.9,35.9,29.58,SE,145,0.0,0.0,96,0.00,,,0.21,Wunderground v.1.15,2013-01-11 22:41:00,
2013-01-11 16:47:00,36.9,35.9,29.58,SE,140,0.0,0.0,96,0.00,,,0.21,Wunderground v.1.15,2013-01-11 22:47:00,
2013-01-11 16:53:00,36.8,35.8,29.58,SSE,157,0.0,0.0,96,0.00,,,0.21,Wunderground v.1.15,2013-01-11 22:53:00,
2013-01-11 16:59:00,36.8,35.8,29.59,South,173,0.0,0.0,96,0.00,,,0.21,Wunderground v.1.15,2013-01-11 22:59:00,
2013-01-11 17:04:00,36.8,35.8,29.59,SSE,167,0.0,0.0,96,0.00,,,0.21,Wunderground v.1.15,2013-01-11 23:04:00,
2013-01-11 17:09:00,36.8,35.8,29.59,SSE,167,0.0,0.0,96,0.00,,,0.21,Wunderground v.1.15,2013-01-11 23:09:00,
2013-01-11 17:15:00,36.6,35.6,29.59,SSE,165,0.0,0.0,96,0.00,,,0.21,Wunderground v.1.15,2013-01-11 23:15:00,
2013-01-11 17:21:00,36.5,35.5,29.59,SSW,192,0.0,0.0,96,0.00,,,0.21,Wunderground v.1.15,2013-01-11 23:21:00,
2013-01-11 17:27:00,36.6,35.6,29.59,SSE,154,0.0,0.0,96,0.00,,,0.21,Wunderground v.1.15,2013-01-11 23:27:00,
2013-01-11 17:33:00,36.6,35.6,29.59,South,175,0.0,0.0,96,0.00,,,0.21,Wunderground v.1.15,2013-01-11 23:33:00,
2013-01-11 17:39:00,36.5,35.5,29.60,South,175,0.0,0.0,96,0.00,,,0.21,Wunderground v.1.15,2013-01-11 23:39:00,
2013-01-11 17:44:00,36.5,35.5,29.59,SSW,205,0.0,0.0,96,0.00,,,0.21,Wunderground v.1.15,2013-01-11 23:44:00,
2013-01-11 17:50:00,36.5,35.5,29.59,SSE,157,0.0,0.0,96,0.00,,,0.21,Wunderground v.1.15,2013-01-11 23:50:00,
2013-01-11 17:56:00,36.5,35.5,29.59,SSE,162,0.0,0.0,96,0.00,,,0.21,Wunderground v.1.15,2013-01-11 23:56:00,
2013-01-11 18:01:00,36.8,35.8,29.58,SE,134,0.0,0.0,96,0.00,,,0.21,Wunderground v.1.15,2013-01-12 00:01:00,
2013-01-11 18:06:00,37.0,36.0,29.58,ESE,119,0.0,0.0,96,0.00,,,0.21,Wunderground v.1.15,2013-01-12 00:06:00,
2013-01-11 18:12:00,37.3,36.3,29.58,SE,139,0.0,0.0,96,0.00,,,0.21,Wunderground v.1.15,2013-01-12 00:12:00,
2013-01-11 18:18:00,37.6,36.6,29.57,SE,132,0.0,0.0,96,0.00,,,0.21,Wunderground v.1.15,2013-01-12 00:18:00,
2013-01-11 18:24:00,37.6,36.6,29.57,SE,139,0.0,0.0,96,0.00,,,0.22,Wunderground v.1.15,2013-01-12 00:24:00,
2013-01-11 18:30:00,37.6,36.6,29.56,SE,128,0.0,0.0,96,0.00,,,0.22,Wunderground v.1.15,2013-01-12 00:30:00,
2013-01-11 18:36:00,37.5,36.5,29.57,SSE,154,0.0,0.0,96,0.00,,,0.22,Wunderground v.1.15,2013-01-12 00:36:00,
2013-01-11 18:42:00,37.3,36.3,29.57,SSE,155,0.0,0.0,96,0.00,,,0.22,Wunderground v.1.15,2013-01-12 00:42:00,
2013-01-11 18:48:00,37.3,36.3,29.56,SE,127,0.0,0.0,96,0.00,,,0.22,Wunderground v.1.15,2013-01-12 00:48:00,
2013-01-11 18:54:00,37.2,36.2,29.56,SE,128,0.0,0.0,96,0.00,,,0.22,Wunderground v.1.15,2013-01-12 00:54:00,
2013-01-11 19:00:00,37.3,36.3,29.56,SE,135,0.0,0.0,96,0.00,,,0.22,Wunderground v.1.15,2013-01-12 01:00:00,
2013-01-11 19:06:00,37.4,36.4,29.57,SE,145,0.0,0.0,96,0.00,,,0.22,Wunderground v.1.15,2013-01-12 01:06:00,
2013-01-11 19:11:00,37.1,36.1,29.56,SE,125,0.0,0.0,96,0.00,,,0.22,Wunderground v.1.15,2013-01-12 01:11:00,
2013-01-11 19:18:00,37.1,36.1,29.57,SE,141,0.0,0.0,96,0.00,,,0.22,Wunderground v.1.15,2013-01-12 01:18:00,
2013-01-11 19:23:00,37.2,36.2,29.57,SSE,165,0.0,0.0,96,0.00,,,0.22,Wunderground v.1.15,2013-01-12 01:23:00,
2013-01-11 19:29:00,37.2,36.2,29.56,SE,132,0.0,0.0,96,0.00,,,0.22,Wunderground v.1.15,2013-01-12 01:29:00,
2013-01-11 19:34:00,37.3,36.3,29.56,SE,144,0.0,0.0,96,0.00,,,0.22,Wunderground v.1.15,2013-01-12 01:34:00,
2013-01-11 19:39:00,37.5,36.5,29.56,South,173,0.0,0.0,96,0.00,,,0.22,Wunderground v.1.15,2013-01-12 01:39:00,
2013-01-11 19:45:00,37.4,36.4,29.55,South,173,0.0,0.0,96,0.00,,,0.22,Wunderground v.1.15,2013-01-12 01:45:00,
2013-01-11 19:51:00,37.4,36.4,29.55,SSE,152,0.0,0.0,96,0.00,,,0.22,Wunderground v.1.15,2013-01-12 01:51:00,
2013-01-11 19:57:00,37.4,36.4,29.54,SSE,150,0.0,0.0,96,0.00,,,0.22,Wunderground v.1.15,2013-01-12 01:57:00,
2013-01-11 20:03:00,37.5,36.5,29.54,SE,136,0.0,0.0,96,0.00,,,0.22,Wunderground v.1.15,2013-01-12 02:03:00,
2013-01-11 20:09:00,37.5,36.5,29.54,SSW,200,0.0,0.0,96,0.00,,,0.22,Wunderground v.1.15,2013-01-12 02:09:00,
2013-01-11 20:15:00,37.5,36.5,29.55,SSW,192,0.0,0.0,96,0.00,,,0.22,Wunderground v.1.15,2013-01-12 02:15:00,
2013-01-11 20:21:00,37.6,36.6,29.55,SSE,165,0.0,0.0,96,0.00,,,0.22,Wunderground v.1.15,2013-01-12 02:21:00,
2013-01-11 20:27:00,37.7,36.7,29.55,SSE,156,0.0,0.0,96,0.00,,,0.22,Wunderground v.1.15,2013-01-12 02:27:00,
2013-01-11 20:33:00,37.4,36.4,29.54,SSE,150,0.0,0.0,96,0.00,,,0.22,Wunderground v.1.15,2013-01-12 02:33:00,
2013-01-11 20:39:00,37.3,36.3,29.54,SE,138,0.0,0.0,96,0.00,,,0.22,Wunderground v.1.15,2013-01-12 02:39:00,
2013-01-11 20:45:00,37.6,36.6,29.53,SE,130,0.0,0.0,96,0.00,,,0.22,Wunderground v.1.15,2013-01-12 02:45:00,
2013-01-11 20:51:00,37.6,36.6,29.53,SE,139,0.0,0.0,96,0.00,,,0.22,Wunderground v.1.15,2013-01-12 02:51:00,
2013-01-11 20:57:00,37.5,36.5,29.53,SSW,203,0.0,0.0,96,0.00,,,0.22,Wunderground v.1.15,2013-01-12 02:57:00,
2013-01-11 21:03:00,37.6,36.6,29.52,ESE,117,0.0,0.0,96,0.00,,,0.22,Wunderground v.1.15,2013-01-12 03:03:00,
2013-01-11 21:09:00,37.7,36.7,29.53,South,172,0.0,0.0,96,0.00,,,0.22,Wunderground v.1.15,2013-01-12 03:09:00,
2013-01-11 21:14:00,37.7,36.7,29.53,SE,127,0.0,0.0,96,0.00,,,0.22,Wunderground v.1.15,2013-01-12 03:14:00,
2013-01-11 21:20:00,37.7,36.7,29.53,SE,133,0.0,0.0,96,0.00,,,0.22,Wunderground v.1.15,2013-01-12 03:20:00,
2013-01-11 21:26:00,37.9,36.9,29.52,South,169,0.0,0.0,96,0.00,,,0.22,Wunderground v.1.15,2013-01-12 03:26:00,
2013-01-11 21:32:00,37.9,36.9,29.52,SSE,167,0.0,0.0,96,0.00,,,0.22,Wunderground v.1.15,2013-01-12 03:32:00,
2013-01-11 21:38:00,37.8,36.8,29.51,SSE,155,0.0,0.0,96,0.00,,,0.22,Wunderground v.1.15,2013-01-12 03:38:00,
2013-01-11 21:44:00,37.9,36.9,29.51,SE,128,0.0,0.0,96,0.00,,,0.22,Wunderground v.1.15,2013-01-12 03:44:00,
2013-01-11 21:50:00,38.1,37.3,29.51,South,184,0.0,0.0,97,0.00,,,0.22,Wunderground v.1.15,2013-01-12 03:50:00,
2013-01-11 21:56:00,38.2,37.4,29.50,SSE,166,0.0,0.0,97,0.00,,,0.22,Wunderground v.1.15,2013-01-12 03:56:00,
2013-01-11 22:01:00,38.0,37.2,29.50,SE,138,0.0,0.0,97,0.00,,,0.22,Wunderground v.1.15,2013-01-12 04:01:00,
2013-01-11 22:07:00,38.3,37.5,29.50,SSW,198,0.0,0.0,97,0.00,,,0.22,Wunderground v.1.15,2013-01-12 04:07:00,
2013-01-11 22:13:00,38.6,37.6,29.50,SSW,192,0.0,0.0,96,0.00,,,0.22,Wunderground v.1.15,2013-01-12 04:13:00,
2013-01-11 22:19:00,38.8,38.0,29.50,South,184,0.0,0.0,97,0.00,,,0.22,Wunderground v.1.15,2013-01-12 04:19:00,
2013-01-11 22:24:00,38.9,38.1,29.50,SE,134,0.0,0.0,97,0.00,,,0.22,Wunderground v.1.15,2013-01-12 04:24:00,
2013-01-11 22:29:00,39.0,38.0,29.50,South,182,0.0,0.0,96,0.00,,,0.22,Wunderground v.1.15,2013-01-12 04:29:00,
2013-01-11 22:35:00,38.9,38.1,29.49,SSW,192,0.0,0.0,97,0.00,,,0.22,Wunderground v.1.15,2013-01-12 04:35:00,
2013-01-11 22:41:00,39.0,38.0,29.49,South,170,0.0,0.0,96,0.00,,,0.22,Wunderground v.1.15,2013-01-12 04:41:00,
2013-01-11 22:46:00,38.8,38.0,29.49,South,188,0.0,0.0,97,0.00,,,0.22,Wunderground v.1.15,2013-01-12 04:46:00,
2013-01-11 22:52:00,38.8,38.0,29.49,SSE,148,0.0,0.0,97,0.00,,,0.22,Wunderground v.1.15,2013-01-12 04:52:00,
2013-01-11 22:58:00,38.7,37.9,29.48,SSE,168,0.0,0.0,97,0.00,,,0.22,Wunderground v.1.15,2013-01-12 04:58:00,
2013-01-11 23:01:00,38.7,37.9,29.49,SW,215,0.0,0.0,97,0.00,,,0.22,Wunderground v.1.15,2013-01-12 05:01:00,
2013-01-11 23:02:00,38.8,38.0,29.49,SSW,203,0.0,0.0,97,0.00,,,0.22,Wunderground v.1.15,2013-01-12 05:02:00,
2013-01-11 23:03:00,38.8,38.0,29.49,SE,144,0.0,0.0,97,0.00,,,0.22,Wunderground v.1.15,2013-01-12 05:03:00,
2013-01-11 23:09:00,38.8,38.0,29.49,South,169,0.0,0.0,97,0.00,,,0.22,Wunderground v.1.15,2013-01-12 05:09:00,
2013-01-11 23:15:00,39.0,38.0,29.48,SSW,199,0.0,0.0,96,0.00,,,0.22,Wunderground v.1.15,2013-01-12 05:15:00,
2013-01-11 23:21:00,39.1,38.1,29.48,SSE,161,0.0,0.0,96,0.00,,,0.22,Wunderground v.1.15,2013-01-12 05:21:00,
2013-01-11 23:27:00,39.2,38.2,29.47,South,171,0.0,0.0,96,0.00,,,0.22,Wunderground v.1.15,2013-01-12 05:27:00,
2013-01-11 23:33:00,39.3,38.5,29.47,SSE,153,0.0,0.0,97,0.00,,,0.22,Wunderground v.1.15,2013-01-12 05:33:00,
2013-01-11 23:39:00,39.7,38.9,29.47,SSE,167,0.0,0.0,97,0.00,,,0.22,Wunderground v.1.15,2013-01-12 05:39:00,
2013-01-11 23:45:00,39.7,38.9,29.47,SE,129,0.0,0.0,97,0.00,,,0.22,Wunderground v.1.15,2013-01-12 05:45:00,
2013-01-11 23:51:00,39.7,38.9,29.48,South,188,0.0,0.0,97,0.00,,,0.22,Wunderground v.1.15,2013-01-12 05:51:00,
2013-01-11 23:56:00,39.8,39.0,29.47,SSW,208,0.0,0.0,97,0.00,,,0.22,Wunderground v.1.15,2013-01-12 05:56:00,